CAPE
0 0 0 0 0 0 0 0 0 0 0 0 0 0 0 0 0 0 0 0 0 0 0 0 0 0 0 0 0 0 1 438 1477 1836 1396 1288 1336 1232 1181 947 839 1347 1426 1216
0 0 0 0 0 0 0 0 0 0 0 0 0 0 0 0 0 0 0 0 0 0 0 0 0 0 0 0 11 0 0 33 167 2037 1308 1215 1017 1049 976 1098 1211 1111 1262 1644
0 0 0 0 0 0 0 0 0 0 0 0 0 0 0 0 0 0 0 0 0 0 0 0 0 0 0 0 0 0 0 0 23 296 1422 2431 2203 2063 1320 862 757 1184 1353 1514
3 0 0 0 0 0 0 3 0 0 0 0 0 0 0 0 0 0 0 0 0 0 0 0 0 0 0 0 0 0 0 0 3 3 355 863 2789 2956 2412 2120 1778 1737 1169 1527
1 9 0 0 4 6 0 0 0 0 0 0 0 0 0 0 0 0 0 0 0 0 0 0 0 0 0 0 0 0 0 0 0 3 424 127 479 801 2217 3018 3786 3712 2747 1857
25 14 7 2 0 5 5 6 5 4 5 0 0 0 0 7 0 0 0 0 0 0 0 0 0 0 0 0 0 0 0 0 0 0 0 75 349 469 433 833 2127 3256 2253 2512
60 48 30 10 0 0 12 0 0 0 33 0 16 0 7 0 0 0 0 0 0 0 0 0 0 0 0 0 0 0 0 0 0 0 0 16 272 206 938 1082 390 1544 2605 3279
138 142 120 64 4 19 16 42 0 0 7 4 9 0 8 2 1 0 0 0 0 0 0 0 0 0 0 0 0 0 0 0 0 0 0 0 38 0 41 312 412 217 435 1487
212 182 64 18 28 31 35 48 38 2 3 0 25 15 23 0 0 0 0 0 0 0 0 0 0 0 0 0 0 0 0 0 0 0 2 1 27 175 124 736 1095 562 1374 726
84 120 177 82 8 25 45 55 126 87 0 0 0 22 31 19 6 7 0 0 0 0 1 2 0 0 0 0 1 0 0 0 0 0 0 0 0 0 87 442 687 963 1596 2520
97 119 184 113 154 142 49 90 67 122 77 0 0 30 4 7 13 7 0 1 2 1 3 3 2 4 0 0 0 0 0 3 0 0 0 4 0 0 12 142 305 646 1490 2031
122 249 181 100 123 134 134 161 218 181 84 3 0 0 1 6 15 0 0 10 36 18 4 1 0 0 1 0 0 0 0 0 1 2 0 0 0 71 248 145 210 578 1267 2033
207 183 258 162 164 46 39 37 76 94 171 79 13 34 11 12 77 74 89 80 49 33 40 17 5 1 1 0 0 0 1 0 0 4 4 45 48 198 788 585 498 666 783 1385
53 80 85 103 51 3 104 66 119 115 178 43 45 58 79 96 91 119 124 110 91 65 81 46 27 24 14 11 4 2 6 6 15 16 2 61 111 387 473 891 787 527 295 929
46 90 99 112 72 71 55 74 73 95 82 83 88 108 92 88 132 128 115 117 88 70 46 64 38 21 15 25 12 14 10 20 48 48 54 147 171 177 217 333 849 589 774 982
85 184 117 163 84 34 16 19 52 69 102 115 127 109 166 183 140 149 100 111 62 37 75 60 37 39 1 8 4 14 86 49 79 45 28 101 84 110 350 599 1067 1429 1013 1469
75 203 97 133 55 96 82 101 120 134 80 37 143 163 150 107 124 143 74 16 17 39 35 44 54 26 15 29 61 5 21 102 88 57 53 137 139 141 233 317 706 961 1785 2494
47 47 85 107 89 0 93 121 111 86 44 85 111 112 84 127 130 57 24 22 37 51 33 29 56 47 72 45 68 97 95 51 53 65 79 177 221 239 368 284 963 1337 2036 2814
14 0 97 98 160 159 103 186 197 176 79 72 100 225 169 21 43 46 28 47 43 55 70 46 46 59 64 37 6 48 100 36 38 46 135 204 277 365 474 476 1229 1681 2072 2690
54 9 88 162 134 2 104 155 99 108 108 278 187 104 24 25 35 28 41 35 31 33 46 2 0 0 102 35 80 69 78 83 60 40 153 247 290 449 687 883 1346 1837 2237 2779
58 35 83 59 85 62 131 144 86 104 166 102 92 63 46 70 72 44 36 21 23 44 0 0 0 0 7 34 7 44 104 85 99 116 195 328 505 658 936 1083 1534 2204 2426 2387
89 131 109 118 191 83 179 86 135 202 140 80 75 92 68 27 0 20 0 0 0 0 0 0 0 0 3 4 15 6 6 33 153 153 279 204 597 637 980 1086 1754 2103 2362 2014
115 141 170 173 232 221 159 219 188 202 126 112 65 4 0 0 0 0 0 0 0 0 0 11 14 4 6 4 11 9 34 134 197 158 311 292 318 519 1018 1082 1322 2001 1345 1285
37 66 71 60 93 23 78 60 113 130 95 44 0 0 0 0 0 0 0 0 0 1 6 3 5 2 5 15 14 17 39 31 89 123 167 152 223 754 1079 1129 1553 1109 1226 1727
0 11 0 0 0 0 0 11 110 61 57 0 0 0 0 0 0 0 1 0 2 1 1 3 3 1 0 0 1 10 12 40 0 53 88 135 317 417 985 981 1009 1749 1932 1721
0 0 0 0 0 0 0 13 72 20 0 0 0 0 0 2 0 1 17 15 2 0 0 0 0 0 0 0 0 0 0 5 28 260 378 177 502 649 686 660 812 809 820 610
CIN
-0 -0 -0 -0 -0 -0 -0 -0 -0 -0 -0 -0 -0 -0 -0 -0 -0 -0 -0 -0 -0 -0 -0 -0 -0 -0 -0 -0 -0 -0 -71 -133 -38 -36 -57 -60 -54 -134 -128 -210 -296 -222 -216 -280
-0 -0 -0 -0 -0 -0 -0 -0 -0 -0 -0 -0 -0 -0 -0 -0 -0 -0 -0 -0 -0 -0 -0 -0 -0 -0 -0 -0 -202 -0 -0 -264 -200 -1 -89 -174 -142 -164 -129 -157 -214 -261 -225 -195
-0 -0 -0 -0 -0 -0 -0 -0 -0 -0 -0 -0 -0 -0 -0 -0 -0 -0 -0 -0 -0 -0 -0 -0 -0 -0 -0 -0 -0 -0 -0 -0 -278 -161 -53 -16 -54 -176 -106 -212 -207 -214 -253 -259
-0 -0 -0 -0 -0 -0 -0 -0 -0 -0 -0 -0 -0 -0 -0 -0 -0 -0 -0 -0 -0 -0 -0 -0 -0 -0 -0 -0 -0 -0 -0 -0 -56 -80 -145 -101 -0 -28 -32 -37 -75 -160 -246 -209
-0 -0 -0 -0 -0 -0 -0 -0 -0 -0 -0 -0 -0 -0 -0 -0 -0 -0 -0 -0 -0 -0 -0 -0 -0 -0 -0 -0 -0 -0 -0 -0 -0 -314 -116 -136 -72 -30 -0 -0 -3 -7 -62 -179
-0 -0 -1 -0 -0 -0 -0 -0 -0 -0 -0 -0 -0 -0 -0 -0 -0 -0 -0 -0 -0 -0 -0 -0 -0 -0 -0 -0 -0 -0 -0 -0 -0 -0 -74 -234 -109 -104 -88 -48 -3 -5 -66 -72
-1 -0 -1 -0 -0 -0 -0 -0 -0 -0 -0 -0 -0 -0 -0 -3 -0 -0 -0 -0 -0 -0 -0 -0 -0 -0 -0 -0 -0 -0 -0 -0 -0 -0 -0 -101 -123 -236 -50 -71 -148 -30 -0 -2
-0 -0 -2 -15 -0 -0 -0 -0 -0 -0 -0 -1 -1 -0 -0 -0 -0 -0 -0 -0 -0 -0 -0 -0 -0 -0 -0 -0 -0 -0 -0 -0 -0 -0 -0 -0 -230 -43 -255 -173 -164 -181 -99 -24
-0 -0 -8 -27 -5 -0 -0 -0 -0 -0 -1 -0 -0 -1 -1 -0 -0 -0 -0 -0 -0 -0 -0 -0 -0 -0 -0 -0 -0 -0 -0 -0 -0 -0 -184 -34 -246 -141 -232 -78 -58 -119 -61 -125
-0 -0 -0 -1 -28 -0 -0 -0 -0 -0 -0 -0 -0 -0 -0 -0 -0 -0 -0 -0 -0 -0 -0 -0 -0 -0 -0 -0 -0 -0 -0 -0 -0 -0 -0 -0 -0 -0 -198 -70 -50 -61 -49 -16
-0 -0 -0 -0 -0 -0 -1 -0 -0 -0 -0 -0 -0 -1 -27 -4 -2 -0 -0 -0 -0 -0 -0 -0 -0 -0 -0 -0 -0 -0 -0 -0 -0 -0 -0 -13 -0 -0 -189 -105 -65 -45 -32 -38
-2 -0 -0 -0 -1 -0 -0 -0 -0 -0 -0 -0 -0 -0 -0 -4 -3 -0 -0 -0 -0 -1 -0 -0 -0 -0 -0 -0 -0 -0 -0 -0 -1 -0 -0 -0 -0 -32 -1 -35 -52 -31 -16 -13
-0 -0 -0 -0 -0 -0 -0 -0 -0 -3 -0 -0 -0 -0 -1 -20 -1 -1 -0 -0 -0 -0 -0 -0 -0 -0 -0 -0 -0 -0 -0 -0 -0 -0 -4 -0 -19 -15 -0 -0 -7 -15 -21 -22
-22 -2 -7 -0 -2 -2 -1 -0 -0 -0 -0 -0 -0 -1 -0 -0 -2 -0 -0 -0 -4 -1 -0 -0 -0 -0 -0 -0 -0 -0 -0 -0 -0 -0 -0 -6 -0 -2 -1 -0 -0 -14 -37 -20
-10 -1 -0 -0 -0 -0 -0 -0 -0 -0 -0 -0 -0 -0 -0 -0 -0 -0 -0 -0 -6 -28 -0 -0 -0 -0 -0 -0 -0 -0 -0 -0 -0 -0 -5 -0 -12 -14 -27 -14 -0 -0 -3 -8
-8 -0 -0 -0 -0 -1 -0 -0 -0 -0 -0 -0 -0 -0 -0 -0 -1 -6 -17 -1 -25 -0 -0 -0 -0 -0 -4 -0 -0 -7 -0 -0 -0 -1 -52 -23 -27 -18 -12 -0 -0 -0 -0 -0
-0 -0 -0 -0 -0 -0 -0 -0 -2 -7 -9 -17 -0 -0 -1 -0 -2 -0 -7 -15 -0 -0 -0 -0 -0 -0 -2 -1 -0 -26 -22 -1 -0 -0 -62 -33 -38 -22 -10 -10 -0 -0 -0 -0
-0 -0 -0 -0 -0 -0 -0 -14 -21 -0 -3 -3 -0 -0 -0 -0 -0 -0 -3 -4 -0 -0 -0 -0 -0 -0 -0 -2 -0 -0 -0 -14 -2 -75 -75 -47 -43 -15 -0 -18 -0 -0 -0 -0
-0 -0 -0 -0 -0 -0 -3 -0 -0 -0 -9 -10 -0 -0 -0 -9 -0 -0 -1 -0 -0 -0 -0 -0 -0 -0 -0 -0 -2 -0 -0 -4 -7 -7 -59 -52 -50 -17 -0 -0 -0 -0 -0 -0
-0 -0 -0 -0 -0 -0 -0 -0 -4 -0 -0 -0 -0 -0 -0 -0 -0 -0 -1 -0 -0 -0 -0 -0 -0 -0 -0 -0 -0 -0 -0 -0 -0 -15 -13 -16 -30 -7 -0 -0 -0 -0 -0 -0
-0 -0 -0 -1 -0 -0 -0 -0 -0 -0 -0 -0 -0 -0 -0 -0 -0 -0 -0 -0 -0 -0 -0 -0 -0 -0 -0 -2 -0 -0 -0 -0 -18 -7 -0 -1 -3 -0 -0 -0 -0 -0 -0 -4
-0 -0 -0 -0 -0 -0 -0 -0 -0 -0 -0 -0 -0 -0 -0 -0 -0 -0 -0 -0 -0 -0 -0 -0 -0 -0 -0 -0 -0 -0 -13 -40 -0 -0 -0 -2 -0 -0 -0 -0 -0 -0 -0 -5
-0 -0 -0 -0 -0 -0 -0 -0 -0 -0 -0 -0 -0 -0 -0 -0 -0 -0 -0 -0 -0 -0 -0 -0 -0 -1 -5 -0 -0 -0 -14 -0 -0 -2 -0 -0 -0 -0 -0 -0 -0 -0 -11 -0
-0 -0 -0 -0 -0 -5 -1 -0 -0 -0 -0 -0 -0 -0 -0 -0 -0 -0 -0 -0 -0 -0 -0 -0 -0 -1 -0 -3 -7 -19 -4 -26 -0 -12 -3 -12 -5 -0 -0 -0 -0 -3 -0 -0
-0 -0 -0 -0 -0 -0 -0 -9 -0 -0 -0 -0 -0 -0 -0 -0 -0 -0 -7 -1 -1 -0 -0 -0 -0 -0 -0 -0 -1 -15 -10 -12 -0 -1 -1 -1 -0 -2 -0 -1 -2 -0 -0 -0
-0 -0 -0 -0 -0 -0 -0 -0 -0 -0 -0 -0 -0 -0 -0 -0 -0 -4 -4 -4 -8 -0 -0 -0 -3 -0 -0 -0 -0 -0 -0 -2 -11 -0 -0 -0 -0 -0 -0 -0 -0 -2 -1 -11
Wind_Speed
nan nan nan nan nan nan nan nan nan nan nan nan nan nan nan nan nan nan nan nan nan nan nan nan nan nan nan nan nan nan nan 74 70 69 69 52 52 54 48 48 41 40 32 35
nan nan nan nan nan nan nan nan nan nan nan nan nan nan nan nan nan nan nan nan nan nan nan nan nan nan nan nan nan nan nan nan 82 61 66 56 61 61 57 50 45 47 32 40
nan nan nan nan nan nan nan nan nan nan nan nan nan nan nan nan nan nan nan nan nan nan nan nan nan nan nan nan nan nan nan nan nan 73 65 64 66 67 58 51 35 46 32 36
nan nan nan nan nan nan nan nan nan nan nan nan nan nan nan nan nan nan nan nan nan nan nan nan nan nan nan nan nan nan nan nan nan nan 64 58 61 62 52 52 38 43 42 34
nan nan nan nan nan nan nan nan nan nan nan nan nan nan nan nan nan nan nan nan nan nan nan nan nan nan nan nan nan nan nan nan nan nan 58 69 51 52 44 36 43 46 51 46
nan nan nan nan nan nan nan nan nan nan nan nan nan nan nan nan nan nan nan nan nan nan nan nan nan nan nan nan nan nan nan nan nan nan nan nan 60 52 48 49 49 50 46 47
nan nan nan nan nan nan nan nan nan nan nan nan nan nan nan nan nan nan nan nan nan nan nan nan nan nan nan nan nan nan nan nan nan nan nan nan 57 61 56 52 53 47 47 51
12 10 20 nan nan nan nan nan nan nan nan nan nan nan nan nan nan nan nan nan nan nan nan nan nan nan nan nan nan nan nan nan nan nan nan nan nan nan nan 59 57 56 53 53
16 18 nan nan nan nan nan nan nan nan nan nan nan nan nan nan nan nan nan nan nan nan nan nan nan nan nan nan nan nan nan nan nan nan nan nan nan 69 72 69 64 62 55 49
nan 19 19 nan nan nan nan nan 26 nan nan nan nan nan nan nan nan nan nan nan nan nan nan nan nan nan nan nan nan nan nan nan nan nan nan nan nan nan nan 61 64 60 58 56
nan 15 9 18 24 11 nan nan nan 16 nan nan nan nan nan nan nan nan nan nan nan nan nan nan nan nan nan nan nan nan nan nan nan nan nan nan nan nan nan 52 50 50 50 45
15 19 12 4 11 11 17 16 20 24 nan nan nan nan nan nan nan nan nan nan nan nan nan nan nan nan nan nan nan nan nan nan nan nan nan nan nan nan 54 53 50 46 46 45
21 18 12 3 3 nan nan nan nan nan 11 nan nan nan nan nan nan nan nan nan nan nan nan nan nan nan nan nan nan nan nan nan nan nan nan nan nan 56 52 50 50 47 45 41
nan nan nan 10 nan nan 10 nan 18 21 31 nan nan nan nan nan nan 19 19 22 nan nan nan nan nan nan nan nan nan nan nan nan nan nan nan nan 63 62 59 54 48 46 43 40
nan nan nan 11 nan nan nan nan nan nan nan nan nan 10 nan nan 13 16 29 27 nan nan nan nan nan nan nan nan nan nan nan nan nan nan nan 51 60 65 62 57 52 45 43 39
nan 1 2 6 nan nan nan nan nan nan 6 6 6 7 5 10 32 21 20 29 nan nan nan nan nan nan nan nan nan nan nan nan nan nan nan 37 nan 62 67 64 56 50 42 38
nan 5 nan 3 nan nan nan 9 7 16 nan nan 13 11 15 22 25 41 nan nan nan nan nan nan nan nan nan nan nan nan nan 50 nan nan nan 24 27 41 53 66 61 53 45 39
nan nan nan 5 nan nan nan 24 19 nan nan nan 27 31 nan 38 36 nan nan nan nan nan nan nan nan nan nan nan nan nan nan nan nan nan nan 29 25 25 34 57 67 58 48 41
nan nan nan nan 1 6 10 26 35 30 nan nan 20 36 35 nan nan nan nan nan nan nan nan nan nan nan nan nan nan nan 23 nan nan nan 32 32 33 30 32 45 66 59 50 42
nan nan nan 7 9 nan 9 30 nan 17 8 33 28 26 nan nan nan nan nan nan nan nan nan nan nan nan 20 nan nan nan nan nan nan nan 28 31 32 31 31 39 62 58 48 40
nan nan nan nan nan nan 19 13 nan 17 17 17 nan nan nan nan nan nan nan nan nan nan nan nan nan nan nan nan nan nan 14 nan nan 31 34 32 34 31 31 38 58 55 44 40
nan 11 13 13 17 nan 14 nan 20 17 16 nan nan nan nan nan nan nan nan nan nan nan nan nan nan nan nan nan nan nan nan nan 18 14 14 35 29 35 35 41 51 44 43 38
3 5 9 10 9 3 5 13 20 20 18 17 nan nan nan nan nan nan nan nan nan nan nan nan nan nan nan nan nan nan nan 13 13 22 25 29 33 31 40 44 43 44 38 38
nan nan nan nan nan nan nan nan 25 14 nan nan nan nan nan nan nan nan nan nan nan nan nan nan nan nan nan nan nan nan nan nan nan 22 31 32 32 42 45 41 41 35 34 36
nan nan nan nan nan nan nan nan 11 nan nan nan nan nan nan nan nan nan nan nan nan nan nan nan nan nan nan nan nan nan nan nan nan nan nan 42 46 44 38 38 34 28 30 26
nan nan nan nan nan nan nan nan nan nan nan nan nan nan nan nan nan nan nan nan nan nan nan nan nan nan nan nan nan nan nan nan nan 43 44 46 39 36 37 34 42 58 40 40
Wind_Direction
nan nan nan nan nan nan nan nan nan nan nan nan nan nan nan nan nan nan nan nan nan nan nan nan nan nan nan nan nan nan nan 229 239 237 222 223 228 235 225 239 242 254 264 273
nan nan nan nan nan nan nan nan nan nan nan nan nan nan nan nan nan nan nan nan nan nan nan nan nan nan nan nan nan nan nan nan 234 241 237 233 233 231 247 231 228 253 250 259
nan nan nan nan nan nan nan nan nan nan nan nan nan nan nan nan nan nan nan nan nan nan nan nan nan nan nan nan nan nan nan nan nan 230 236 239 250 242 240 243 252 258 251 274
nan nan nan nan nan nan nan nan nan nan nan nan nan nan nan nan nan nan nan nan nan nan nan nan nan nan nan nan nan nan nan nan nan nan 232 242 236 248 253 254 261 253 276 285
nan nan nan nan nan nan nan nan nan nan nan nan nan nan nan nan nan nan nan nan nan nan nan nan nan nan nan nan nan nan nan nan nan nan 246 241 240 248 255 257 261 268 277 290
nan nan nan nan nan nan nan nan nan nan nan nan nan nan nan nan nan nan nan nan nan nan nan nan nan nan nan nan nan nan nan nan nan nan nan nan 248 246 237 241 248 263 269 273
nan nan nan nan nan nan nan nan nan nan nan nan nan nan nan nan nan nan nan nan nan nan nan nan nan nan nan nan nan nan nan nan nan nan nan nan 242 246 243 249 253 250 258 271
240 257 314 nan nan nan nan nan nan nan nan nan nan nan nan nan nan nan nan nan nan nan nan nan nan nan nan nan nan nan nan nan nan nan nan nan nan nan nan 244 247 246 251 252
246 242 nan nan nan nan nan nan nan nan nan nan nan nan nan nan nan nan nan nan nan nan nan nan nan nan nan nan nan nan nan nan nan nan nan nan nan 240 234 230 232 244 252 250
nan 242 260 nan nan nan nan nan 246 nan nan nan nan nan nan nan nan nan nan nan nan nan nan nan nan nan nan nan nan nan nan nan nan nan nan nan nan nan nan 242 241 236 245 252
nan 256 225 270 274 278 nan nan nan 237 nan nan nan nan nan nan nan nan nan nan nan nan nan nan nan nan nan nan nan nan nan nan nan nan nan nan nan nan nan 243 242 242 244 248
261 264 263 223 296 250 247 253 227 236 nan nan nan nan nan nan nan nan nan nan nan nan nan nan nan nan nan nan nan nan nan nan nan nan nan nan nan nan 241 242 242 243 244 248
257 263 253 210 53 nan nan nan nan nan 214 nan nan nan nan nan nan nan nan nan nan nan nan nan nan nan nan nan nan nan nan nan nan nan nan nan nan 240 238 240 242 241 239 242
nan nan nan 203 nan nan 298 nan 202 215 224 nan nan nan nan nan nan 246 243 247 nan nan nan nan nan nan nan nan nan nan nan nan nan nan nan nan 237 237 236 234 238 238 238 236
nan nan nan 169 nan nan nan nan nan nan nan nan nan 205 nan nan 234 281 250 254 nan nan nan nan nan nan nan nan nan nan nan nan nan nan nan 245 236 233 232 231 232 236 237 237
nan 27 131 172 nan nan nan nan nan nan 322 295 264 227 284 14 244 273 287 267 nan nan nan nan nan nan nan nan nan nan nan nan nan nan nan 240 nan 228 226 228 226 228 234 234
nan 300 nan 208 nan nan nan 57 237 192 nan nan 210 253 239 231 242 236 nan nan nan nan nan nan nan nan nan nan nan nan nan 240 nan nan nan 224 229 223 218 218 220 220 228 231
nan nan nan 229 nan nan nan 231 189 nan nan nan 225 220 nan 242 250 nan nan nan nan nan nan nan nan nan nan nan nan nan nan nan nan nan nan 227 225 229 224 213 207 213 217 227
nan nan nan nan 285 132 178 246 251 252 nan nan 259 252 254 nan nan nan nan nan nan nan nan nan nan nan nan nan nan nan 228 nan nan nan 223 229 231 237 220 210 197 206 209 220
nan nan nan 317 296 nan 233 265 nan 262 290 255 244 243 nan nan nan nan nan nan nan nan nan nan nan nan 283 nan nan nan nan nan nan nan 228 233 227 223 217 203 187 195 205 216
nan nan nan nan nan nan 283 282 nan 322 282 238 nan nan nan nan nan nan nan nan nan nan nan nan nan nan nan nan nan nan 221 nan nan 240 232 216 212 209 202 188 181 187 203 212
nan 353 355 2 352 nan 282 nan 297 285 271 nan nan nan nan nan nan nan nan nan nan nan nan nan nan nan nan nan nan nan nan nan 244 250 206 197 196 193 194 172 174 187 202 213
323 317 343 343 337 87 308 327 316 300 283 307 nan nan nan nan nan nan nan nan nan nan nan nan nan nan nan nan nan nan nan 327 126 152 161 165 166 166 163 159 174 188 204 214
nan nan nan nan nan nan nan nan 320 305 nan nan nan nan nan nan nan nan nan nan nan nan nan nan nan nan nan nan nan nan nan nan nan 138 143 146 150 148 146 160 178 196 206 217
nan nan nan nan nan nan nan nan 343 nan nan nan nan nan nan nan nan nan nan nan nan nan nan nan nan nan nan nan nan nan nan nan nan nan nan 133 140 139 152 170 176 192 206 214
nan nan nan nan nan nan nan nan nan nan nan nan nan nan nan nan nan nan nan nan nan nan nan nan nan nan nan nan nan nan nan nan nan 122 133 134 139 161 172 181 188 197 201 212